Find Kosmos-2441

NORAD ID: 33272 Int'l Des: 2008-037 Owner: KVR Country: RU operational
LEOCIRCULARRETROGRADESSO

現在のビュー

3D地球を読み込み中...

About Kosmos-2441

Kosmos-2441 (NORAD 33272) is a satellite launched Jul 26, 2008 by KVR of RU. It operates in LEO, CIRCULAR, RETROGRADE, SSO orbit with a mass of 7000.00 kg.

次回通過

Passes for default location (London). Set your location on the main map for personalized predictions.

高度履歴

Loading altitude history...

軌道要素

1 33272U 08037A 26194.47213796 .00000064 00000-0 26456-4 0 9993
2 33272 98.3295 141.1385 0014787 258.6125 101.3410 14.53275291951862
Epoch: Jul 13, 2026 • Age: 15 hours

現在のステータス

高度 725.4 km
遠地点 / 近地点 N/A
速度 7.49 km/s
衛星直下点 28.03°N, 170.35°E
打ち上げ日 Jul 26, 2008
運用期間 17.9 years
タイプ other

技術仕様

分類 Payload
質量 7000.00 kg
乾燥質量 7000.00 kg
総質量 7000.00 kg
長さ 6.30 m
直径 2.70 m
スパン 6.30 m
形状 Cyl + 2 Pan
製造者 TSSKBP
バスタイプ Persona-1
フェーズステータス In Orbit
所有者/国 KVR/RU

Most Searched